Wind_Speed
15 14 13 11 4 13 15 15 21 26 17 12 11 10 7 7 9 5 4 3 2 2 1 1 2 3 5 6 7 7 8 6 3 2 1 3 4 4 7 10 6 5 5
15 9 9 10 8 11 13 16 17 19 16 15 12 9 7 7 5 3 3 3 3 4 3 4 4 4 5 6 6 7 6 7 5 3 4 4 5 5 6 6 11 13 7
28 26 16 17 9 5 4 6 14 13 10 10 8 5 4 4 4 4 4 4 4 4 5 5 6 7 7 7 6 6 7 7 7 5 5 5 6 7 7 7 8 9 10
28 20 15 7 3 3 9 9 9 9 8 5 5 4 3 2 1 2 0 1 3 4 5 5 7 7 7 8 8 8 8 8 8 8 9 8 8 9 10 10 10 9 9
23 18 7 6 6 5 6 7 6 5 5 4 2 2 3 2 2 2 1 1 2 4 5 5 5 5 7 8 9 10 10 10 10 10 11 11 14 12 11 11 12 12 12
16 10 7 7 8 4 4 2 2 3 3 2 3 3 3 3 2 2 1 0 1 2 4 5 5 5 6 7 8 9 10 11 12 12 14 13 15 16 17 18 17 15 13
15 6 8 8 7 4 3 3 4 4 5 5 5 5 4 3 2 2 2 3 3 4 5 5 6 6 7 8 8 8 9 10 11 13 13 15 16 18 19 19 19 21 20
7 7 6 6 6 6 6 7 7 7 6 6 5 5 4 4 3 2 2 2 3 3 4 5 6 6 7 8 9 10 10 11 12 13 12 16 17 18 19 21 23 23 22
9 9 9 9 10 10 10 10 8 8 7 6 6 4 3 2 1 1 2 3 4 5 6 7 7 8 9 10 12 14 15 16 16 16 16 17 18 19 20 21 23 25 26
10 9 9 10 9 9 9 8 8 6 5 4 3 3 4 3 3 3 5 6 8 10 11 12 13 13 13 14 15 17 18 19 19 19 19 21 23 24 24 24 24 25 26
8 9 9 9 9 7 7 7 6 6 6 5 6 7 7 6 7 6 6 7 9 10 11 11 11 12 12 14 15 17 19 21 22 23 23 25 26 26 27 28 29 29 29
8 9 9 9 10 10 10 10 10 9 9 9 10 10 10 10 10 8 8 8 9 11 13 15 16 17 19 21 22 21 22 23 24 26 28 29 31 31 32 30 30 32 33
12 10 11 11 11 12 11 11 11 13 14 14 14 15 15 15 13 13 12 13 15 17 19 21 22 23 25 27 28 29 28 28 29 28 28 28 30 32 32 32 32 33 34
14 14 14 14 14 15 14 15 15 15 15 17 18 19 19 18 18 19 19 20 22 24 24 25 27 28 29 31 31 31 31 31 31 30 30 31 32 34 36 37 38 39 38
18 18 20 19 18 19 19 17 16 16 18 19 20 21 21 21 22 23 24 26 28 28 28 29 31 32 34 34 34 34 35 36 37 37 38 40 42 44 45 45 45 45 46
24 25 24 22 22 22 21 20 19 19 20 21 22 23 24 25 27 29 30 32 33 33 33 35 37 37 37 36 36 37 38 40 41 42 45 47 49 51 54 56 56 56 55
26 26 25 24 23 24 24 24 24 24 24 25 26 26 28 30 33 34 35 35 36 37 38 40 42 40 39 38 39 42 44 46 47 49 51 53 55 58 60 62 64 67 68
28 28 27 27 27 27 27 28 29 30 31 31 31 31 32 33 35 36 37 38 40 42 44 46 46 44 43 43 45 47 50 52 54 57 58 61 64 67 70 71 73 75 80
30 30 30 31 31 31 31 32 33 33 34 35 36 37 38 38 39 41 42 44 45 47 49 51 50 48 48 49 52 54 58 61 64 67 69 69 71 72 73 75 77 80 83
34 34 34 34 34 35 36 36 36 36 36 37 39 40 41 42 44 46 47 48 50 52 55 55 53 54 55 55 58 62 64 67 70 70 71 75 75 78 82 84 87 86 86
36 36 35 36 37 37 37 38 38 38 39 41 42 43 44 46 48 49 50 52 53 55 56 56 57 59 61 63 65 66 70 74 75 76 78 80 83 86 88 91 94 98 97
37 36 36 36 36 37 37 39 40 42 44 44 45 46 48 49 50 51 53 55 57 59 61 62 62 64 66 70 72 76 76 76 79 80 83 86 89 93 95 98 102 105 105
38 36 37 37 37 38 41 43 44 45 45 46 48 49 50 51 52 54 56 59 63 65 66 67 69 71 72 75 78 81 83 84 84 85 88 90 95 99 102 105 107 109 110
39 38 37 38 39 42 44 45 45 46 46 47 49 51 53 54 56 58 61 64 66 68 70 72 74 75 77 79 82 87 89 90 91 91 92 95 100 105 110 111 110 107 106
40 37 39 40 42 43 44 45 47 48 49 51 52 54 55 56 58 61 63 65 67 70 73 76 79 81 83 84 87 89 90 92 95 98 95 100 106 113 112 109 105 105 104
38 39 41 42 42 43 45 46 47 50 52 54 56 58 59 60 61 63 66 68 72 75 78 81 83 84 86 88 90 90 92 95 101 106 108 109 111 103 101 99 100 99 100
Wind_Direction
211 210 225 260 234 177 191 190 192 195 178 159 154 156 159 147 155 179 184 203 226 259 302 353 5 19 17 16 18 13 17 17 353 331 298 310 318 323 269 266 281 282 275
177 198 224 200 155 142 131 154 154 161 162 155 155 155 161 152 154 184 238 256 279 293 300 313 321 331 341 346 357 357 355 356 341 318 300 298 308 309 308 318 273 272 257
170 134 148 175 166 131 147 133 152 142 142 147 150 151 151 160 180 203 226 252 270 287 301 314 314 320 323 327 333 334 333 331 337 309 298 316 316 311 307 306 298 290 294
180 194 149 139 162 111 107 115 123 136 140 141 152 171 189 208 199 226 181 301 321 318 319 319 313 316 317 319 317 316 316 315 316 309 301 294 295 299 305 306 300 292 296
176 184 166 137 146 130 123 116 128 145 160 159 155 182 200 207 218 250 254 296 306 302 306 306 303 308 313 314 312 311 310 306 303 301 298 301 293 295 292 293 295 299 295
192 181 156 164 155 157 158 184 152 167 171 167 187 189 195 188 201 216 236 356 295 299 305 301 302 306 300 296 296 299 301 302 299 302 300 296 295 297 300 299 296 290 290
194 207 188 182 163 182 170 179 176 168 174 178 190 182 180 164 146 119 77 54 42 22 3 351 351 357 350 341 333 324 317 309 303 299 297 298 296 295 294 292 294 295 292
181 184 187 196 186 185 191 200 204 201 195 177 160 142 127 127 117 99 79 50 16 354 339 327 327 327 324 323 321 320 320 318 315 314 316 303 301 295 290 291 292 290 288
194 193 195 198 203 202 204 199 190 185 174 167 168 159 170 165 202 266 312 321 315 303 297 292 294 298 301 305 308 310 309 306 304 304 304 299 299 299 299 296 291 288 288
210 210 209 209 205 202 194 186 183 185 196 203 206 212 230 239 257 284 288 302 304 305 305 306 306 308 311 312 316 321 317 311 308 307 303 299 297 295 291 290 290 290 289
215 218 223 224 211 196 204 210 219 222 226 239 255 258 256 261 267 271 288 303 304 299 300 297 305 307 309 307 307 307 307 305 302 303 304 304 303 302 298 294 289 287 285
231 223 215 212 212 221 225 229 235 245 256 258 260 263 263 265 260 271 279 294 302 309 310 304 300 302 298 300 300 299 295 295 296 295 292 293 294 296 295 292 290 290 288
225 226 229 226 232 237 244 255 264 264 264 268 269 267 266 266 260 262 273 278 291 298 298 297 299 297 296 296 297 299 301 301 301 296 293 293 293 295 293 293 292 290 288
234 236 244 247 250 256 256 256 256 258 261 263 263 264 265 260 253 255 263 275 287 292 293 294 294 292 290 290 290 292 294 295 295 291 291 291 292 292 293 292 293 293 292
247 249 251 252 255 256 255 255 264 275 275 272 272 271 267 264 266 268 273 279 283 288 291 292 292 292 291 290 288 289 291 298 298 296 297 297 295 295 293 291 290 290 290
247 247 249 251 253 255 259 261 269 277 277 277 278 278 276 274 274 275 277 281 285 288 291 291 293 291 290 290 290 290 289 290 294 295 296 296 296 295 296 296 294 292 290
254 255 257 257 259 263 264 267 271 277 277 275 277 278 278 276 276 277 278 281 284 286 286 287 289 287 287 286 286 285 285 288 291 294 297 296 296 298 297 295 293 294 292
257 256 256 256 259 262 265 268 271 273 274 274 275 278 278 278 279 279 280 283 285 286 286 285 287 288 287 286 288 289 292 293 291 291 290 290 291 291 291 291 290 291 293
260 258 257 258 260 263 264 266 269 271 272 273 275 277 280 282 282 283 283 283 285 286 285 286 288 289 293 295 296 296 297 297 297 295 295 295 293 292 293 294 294 290 287
262 260 261 262 263 266 267 269 270 271 272 274 275 277 279 281 282 282 283 284 285 286 286 288 290 293 292 292 294 295 296 296 297 296 295 295 294 293 292 292 294 289 284
264 263 263 263 264 264 266 269 272 275 276 277 278 279 280 282 284 285 285 286 287 288 291 292 291 292 295 294 294 295 298 297 296 296 297 295 294 293 292 291 292 291 285
263 263 263 263 264 267 270 272 273 276 278 278 279 280 282 284 285 286 286 288 289 290 292 295 295 296 297 296 296 296 295 296 296 296 295 294 293 292 291 290 290 287 282
265 265 263 264 268 271 272 274 277 278 278 279 281 283 284 285 287 288 289 290 290 290 293 297 297 298 298 298 298 297 295 295 294 293 294 294 292 292 290 287 284 282 280
262 263 266 268 271 274 277 278 279 280 281 281 282 284 286 288 289 290 291 291 293 294 294 296 297 296 296 296 297 298 297 296 295 293 294 293 292 292 290 288 286 283 279
262 264 267 270 273 277 280 281 282 283 283 284 285 286 288 289 290 291 291 292 293 294 294 294 295 295 296 297 297 297 297 298 297 296 295 294 292 290 290 289 285 280 274
262 264 267 271 275 278 280 281 282 282 283 284 285 287 288 289 290 291 292 292 293 293 293 294 295 296 297 298 299 298 299 298 297 297 296 294 293 291 290 284 280 277 274
Height
5820 5825 5825 5825 5824 5824 5825 5824 5823 5825 5828 5831 5833 5835 5836 5835 5836 5838 5839 5840 5841 5842 5841 5842 5842 5842 5842 5842 5841 5841 5840 5840 5840 5840 5840 5840 5841 5842 5843 5845 5844 5845 5845
5821 5824 5822 5823 5823 5821 5821 5821 5822 5825 5828 5830 5832 5833 5835 5835 5836 5836 5838 5839 5839 5840 5841 5841 5842 5842 5842 5842 5841 5841 5840 5840 5840 5840 5841 5842 5842 5841 5842 5843 5844 5845 5845
5818 5813 5812 5819 5820 5821 5821 5822 5824 5825 5827 5828 5830 5832 5834 5835 5836 5836 5838 5839 5839 5840 5840 5840 5841 5841 5841 5841 5840 5840 5840 5840 5840 5840 5840 5841 5842 5842 5842 5842 5843 5844 5845
5815 5816 5815 5817 5820 5821 5823 5824 5825 5827 5828 5829 5831 5833 5834 5834 5835 5837 5836 5837 5837 5838 5839 5839 5840 5840 5840 5839 5839 5839 5839 5839 5839 5840 5840 5840 5840 5841 5842 5842 5842 5843 5844
5814 5813 5815 5817 5820 5822 5823 5824 5826 5828 5829 5829 5831 5833 5834 5833 5834 5834 5834 5834 5835 5836 5837 5837 5838 5838 5838 5838 5838 5838 5838 5838 5838 5838 5839 5840 5839 5840 5840 5840 5841 5841 5842
5812 5812 5814 5817 5820 5821 5822 5825 5826 5827 5828 5828 5830 5831 5832 5832 5833 5833 5833 5833 5834 5835 5835 5836 5836 5836 5837 5836 5836 5836 5837 5836 5836 5837 5838 5838 5838 5839 5839 5839 5840 5839 5839
5811 5812 5815 5818 5819 5821 5821 5823 5824 5825 5827 5828 5829 5830 5830 5830 5831 5832 5832 5832 5833 5833 5834 5835 5835 5835 5836 5836 5836 5836 5836 5835 5835 5835 5835 5837 5837 5837 5837 5837 5838 5838 5838
5811 5812 5815 5817 5819 5820 5821 5822 5824 5824 5825 5826 5827 5828 5828 5829 5830 5830 5830 5831 5832 5832 5833 5834 5834 5833 5834 5834 5834 5834 5834 5834 5833 5834 5834 5832 5833 5833 5834 5835 5835 5835 5835
5812 5814 5815 5816 5817 5818 5820 5822 5822 5824 5825 5826 5826 5826 5828 5828 5828 5829 5828 5828 5828 5830 5830 5831 5831 5831 5831 5831 5832 5832 5832 5832 5831 5831 5831 5830 5830 5830 5830 5830 5831 5831 5832
5812 5813 5814 5816 5816 5818 5819 5820 5822 5823 5824 5824 5824 5825 5826 5825 5825 5825 5826 5825 5826 5827 5828 5828 5829 5829 5828 5828 5828 5828 5828 5828 5828 5827 5827 5827 5827 5826 5826 5826 5826 5826 5826
5811 5812 5813 5814 5815 5816 5818 5819 5820 5821 5821 5821 5822 5823 5823 5821 5822 5823 5823 5822 5823 5823 5823 5824 5823 5823 5824 5824 5825 5825 5825 5825 5824 5823 5823 5822 5822 5822 5822 5822 5821 5821 5821
5809 5810 5811 5813 5814 5816 5816 5818 5818 5818 5818 5819 5819 5818 5817 5817 5819 5818 5818 5817 5818 5819 5819 5820 5820 5818 5819 5820 5820 5820 5820 5820 5819 5818 5818 5817 5816 5815 5815 5815 5815 5815 5815
5808 5809 5810 5810 5811 5812 5812 5813 5813 5813 5813 5812 5813 5814 5814 5814 5814 5814 5813 5814 5815 5815 5815 5815 5814 5813 5813 5814 5813 5813 5813 5812 5811 5812 5811 5811 5811 5810 5810 5808 5808 5808 5808
5806 5807 5808 5808 5807 5808 5809 5809 5809 5810 5809 5810 5811 5810 5809 5809 5809 5809 5809 5810 5810 5810 5810 5809 5808 5808 5808 5807 5807 5806 5805 5805 5804 5804 5803 5803 5802 5802 5802 5802 5801 5801 5800
5802 5802 5804 5804 5804 5805 5805 5805 5805 5805 5805 5805 5804 5803 5803 5804 5804 5804 5804 5804 5803 5803 5802 5801 5801 5800 5800 5799 5799 5798 5798 5797 5796 5796 5795 5795 5794 5794 5793 5792 5792 5791 5791
5799 5800 5801 5801 5801 5801 5801 5800 5800 5800 5800 5799 5798 5798 5798 5798 5798 5798 5797 5797 5796 5795 5794 5793 5792 5791 5791 5790 5789 5789 5788 5787 5787 5786 5786 5785 5784 5784 5783 5783 5782 5782 5781
5794 5795 5796 5795 5795 5795 5795 5795 5794 5794 5794 5794 5794 5793 5793 5792 5791 5791 5790 5789 5788 5786 5785 5784 5784 5783 5782 5781 5780 5779 5778 5777 5775 5773 5773 5773 5771 5770 5769 5768 5768 5768 5768
5788 5789 5789 5790 5789 5789 5789 5788 5788 5788 5788 5788 5787 5786 5785 5785 5784 5783 5782 5780 5778 5776 5776 5775 5774 5772 5771 5770 5769 5767 5766 5763 5762 5761 5760 5759 5757 5755 5752 5751 5752 5750 5746
5781 5782 5782 5782 5782 5782 5782 5782 5782 5782 5781 5780 5779 5778 5777 5776 5774 5773 5771 5770 5768 5767 5765 5764 5762 5761 5759 5758 5756 5755 5752 5750 5747 5747 5745 5742 5739 5736 5734 5734 5733 5730 5727
5773 5774 5774 5774 5775 5775 5775 5775 5774 5773 5773 5772 5771 5769 5768 5766 5764 5763 5761 5759 5757 5755 5754 5752 5749 5747 5744 5744 5742 5740 5737 5734 5732 5730 5727 5724 5720 5717 5713 5713 5711 5707 5704
5765 5765 5766 5766 5766 5766 5766 5766 5765 5764 5763 5762 5760 5759 5757 5756 5754 5751 5749 5748 5746 5743 5741 5738 5736 5733 5728 5726 5726 5725 5721 5716 5714 5711 5706 5704 5699 5696 5691 5688 5686 5683 5678
5757 5757 5757 5757 5757 5757 5756 5756 5755 5754 5753 5752 5750 5748 5746 5744 5742 5740 5738 5735 5733 5730 5727 5723 5719 5717 5712 5709 5708 5707 5707 5703 5696 5692 5687 5683 5677 5673 5667 5661 5657 5654 5652
5748 5749 5748 5748 5748 5747 5746 5746 5745 5744 5742 5741 5739 5737 5734 5732 5730 5727 5724 5721 5718 5715 5711 5706 5703 5699 5696 5691 5687 5683 5682 5680 5678 5675 5669 5661 5654 5647 5641 5634 5626 5622 5618
5737 5738 5739 5738 5738 5737 5736 5735 5734 5733 5731 5729 5727 5724 5721 5719 5716 5713 5709 5706 5702 5698 5694 5690 5686 5682 5678 5675 5669 5661 5655 5651 5648 5654 5650 5642 5632 5623 5611 5601 5594 5589 5582
5727 5729 5728 5728 5727 5726 5725 5724 5722 5721 5719 5717 5714 5711 5708 5705 5701 5698 5694 5691 5687 5682 5678 5674 5669 5663 5657 5653 5647 5641 5634 5626 5617 5612 5624 5617 5604 5591 5580 5570 5559 5550 5542
5717 5717 5716 5716 5715 5714 5714 5712 5711 5709 5707 5704 5701 5698 5694 5690 5686 5683 5679 5674 5670 5665 5661 5656 5650 5644 5638 5632 5624 5616 5608 5599 5589 5580 5577 5582 5571 5564 5545 5532 5521 5514 5507